TimeMST,TemperatureF,Dew PointF,Humidity,Sea Level PressureIn,VisibilityMPH,Wind Direction,Wind SpeedMPH,Gust SpeedMPH,PrecipitationIn,Events,Conditions,WindDirDegrees,DateUTC
12:15 AM,16.3,13.5,88,29.85,10.0,Calm,Calm,-,N/A,,Clear,0,2013-02-23 07:15:00
7:55 AM,15.6,9.5,77,29.76,10.0,WSW,8.1,-,N/A,,Clear,250,2013-02-23 14:55:00
8:15 AM,15.8,9.0,74,29.77,10.0,WSW,8.1,-,N/A,,Clear,250,2013-02-23 15:15:00
8:35 AM,17.4,9.9,72,29.76,10.0,WSW,4.6,-,N/A,,Clear,240,2013-02-23 15:35:00
8:55 AM,19.8,11.1,69,29.76,10.0,West,6.9,-,N/A,,Clear,260,2013-02-23 15:55:00
9:15 AM,21.6,13.1,70,29.77,10.0,West,8.1,-,N/A,,Clear,260,2013-02-23 16:15:00
9:35 AM,23.0,14.7,71,29.75,10.0,WSW,5.8,-,N/A,,Clear,250,2013-02-23 16:35:00
9:55 AM,24.4,16.0,70,29.75,10.0,WSW,6.9,-,N/A,,Clear,250,2013-02-23 16:55:00
10:15 AM,26.4,16.3,66,29.74,10.0,West,4.6,-,N/A,,Clear,260,2013-02-23 17:15:00
10:35 AM,28.4,16.5,61,29.74,10.0,WSW,4.6,-,N/A,,Clear,240,2013-02-23 17:35:00
10:55 AM,30.9,17.2,57,29.73,10.0,SW,4.6,-,N/A,,Clear,230,2013-02-23 17:55:00
11:15 AM,31.8,18.0,57,29.72,10.0,WSW,5.8,-,N/A,,Clear,240,2013-02-23 18:15:00
11:35 AM,34.7,20.1,55,29.72,10.0,SSW,4.6,-,N/A,,Clear,200,2013-02-23 18:35:00
11:55 AM,35.8,19.2,51,29.70,10.0,SW,3.5,-,N/A,,Clear,230,2013-02-23 18:55:00
12:15 PM,36.5,19.2,50,29.70,10.0,SW,5.8,-,N/A,,Clear,230,2013-02-23 19:15:00
12:35 PM,38.1,16.0,41,29.68,10.0,South,4.6,-,N/A,,Clear,180,2013-02-23 19:35:00
12:55 PM,38.5,17.6,43,29.67,10.0,SE,4.6,-,N/A,,Clear,130,2013-02-23 19:55:00
1:15 PM,37.8,16.9,43,29.66,10.0,East,4.6,-,N/A,,Clear,100,2013-02-23 20:15:00
1:35 PM,39.9,17.4,40,29.65,10.0,Calm,Calm,-,N/A,,Clear,0,2013-02-23 20:35:00
1:55 PM,40.8,18.3,40,29.65,10.0,SE,3.5,-,N/A,,Clear,130,2013-02-23 20:55:00
2:15 PM,40.6,19.6,43,29.64,10.0,SSE,5.8,-,N/A,,Clear,150,2013-02-23 21:15:00
2:35 PM,39.9,19.6,44,29.63,10.0,SE,8.1,-,N/A,,Clear,140,2013-02-23 21:35:00
2:55 PM,41.2,17.4,38,29.63,10.0,SE,6.9,-,N/A,,Clear,130,2013-02-23 21:55:00
3:15 PM,41.5,16.2,36,29.63,10.0,SE,8.1,-,N/A,,Clear,140,2013-02-23 22:15:00
3:35 PM,39.2,18.5,43,29.63,10.0,SSE,6.9,-,N/A,,Clear,150,2013-02-23 22:35:00
3:55 PM,43.3,14.9,32,29.62,10.0,SE,5.8,-,N/A,,Clear,130,2013-02-23 22:55:00
4:15 PM,42.1,15.8,35,29.63,10.0,SSE,8.1,-,N/A,,Scattered Clouds,150,2013-02-23 23:15:00
4:35 PM,39.6,18.9,43,29.63,10.0,Calm,Calm,-,N/A,,Mostly Cloudy,0,2013-02-23 23:35:00
4:55 PM,39.0,18.0,43,29.62,10.0,ESE,4.6,-,N/A,,Scattered Clouds,120,2013-02-23 23:55:00
5:15 PM,36.9,20.1,51,29.63,10.0,SE,4.6,-,N/A,,Scattered Clouds,130,2013-02-24 00:15:00
5:35 PM,35.4,20.5,55,29.63,10.0,Calm,Calm,-,N/A,,Scattered Clouds,0,2013-02-24 00:35:00
5:55 PM,35.2,18.7,51,29.63,10.0,ESE,5.8,-,N/A,,Clear,110,2013-02-24 00:55:00
6:15 PM,32.2,19.9,61,29.63,10.0,ENE,6.9,-,N/A,,Clear,70,2013-02-24 01:15:00
6:35 PM,28.8,20.8,72,29.63,10.0,ENE,6.9,-,N/A,,Clear,70,2013-02-24 01:35:00
6:55 PM,30.2,20.1,66,29.64,10.0,ENE,5.8,-,N/A,,Clear,70,2013-02-24 01:55:00
7:15 PM,28.4,20.3,72,29.65,10.0,ENE,6.9,-,N/A,,Clear,60,2013-02-24 02:15:00
7:35 PM,27.3,20.1,74,29.65,10.0,ENE,5.8,-,N/A,,Clear,60,2013-02-24 02:35:00
8:15 PM,30.2,22.1,72,29.67,10.0,NNE,9.2,-,N/A,,Mostly Cloudy,20,2013-02-24 03:15:00
8:35 PM,30.4,22.8,73,29.67,10.0,NE,6.9,-,N/A,,Overcast,40,2013-02-24 03:35:00
8:55 PM,31.1,23.5,74,29.66,10.0,NE,8.1,-,N/A,,Overcast,50,2013-02-24 03:55:00
9:15 PM,30.7,24.1,76,29.67,10.0,ENE,3.5,-,N/A,,Overcast,70,2013-02-24 04:15:00
9:35 PM,31.1,23.9,75,29.69,10.0,Calm,Calm,-,N/A,,Overcast,0,2013-02-24 04:35:00
9:55 PM,30.7,24.8,79,29.70,10.0,North,4.6,-,N/A,,Overcast,350,2013-02-24 04:55:00
10:15 PM,31.6,24.6,75,29.70,10.0,North,9.2,-,N/A,,Overcast,350,2013-02-24 05:15:00
10:35 PM,32.0,23.9,72,29.70,10.0,North,9.2,-,N/A,,Overcast,360,2013-02-24 05:35:00
10:55 PM,31.5,24.8,76,29.69,10.0,North,9.2,-,N/A,,Overcast,360,2013-02-24 05:55:00
11:15 PM,30.6,25.0,80,29.69,10.0,NE,6.9,-,N/A,,Overcast,50,2013-02-24 06:15:00
11:35 PM,30.9,23.9,75,29.70,10.0,NNE,5.8,-,N/A,,Overcast,30,2013-02-24 06:35:00
11:55 PM,30.6,23.2,74,29.70,10.0,NE,5.8,-,N/A,,Overcast,50,2013-02-24 06:55:00